GW3843 Weather Reports


time (UTC)temp
F
wind
direction
speed
knots
gust
knots
rain 1hr
in
rain 24hr
in
rain mn
in
humidity
%
barometer
mb
20260506124549 50 0 0.0 0.0 0.00 0.00 0.00 79 1016.3
20260506123048 50 0 0.0 0.0 0.00 0.00 0.00 82 1016.1
20260506121558 50 0 0.0 0.0 0.00 0.00 0.00 75 1016.1
20260506120119 50 0 0.0 0.0 0.00 0.00 0.00 81 1016.0
20260506114545 50 0 0.0 0.0 0.00 2.29 0.00 80 1016.0
20260506113040 50 0 0.0 0.0 0.00 2.29 0.00 79 1016.0
20260506111544 51 0 0.0 0.0 0.00 2.29 0.00 76 1015.9
20260506110056 51 0 0.0 0.0 0.00 2.29 0.00 76 1015.9
20260506104542 51 0 0.0 0.0 0.00 9.14 0.00 72 1015.8
20260506103042 52 0 0.0 0.0 0.00 9.14 0.00 69 1015.7
20260506101549 52 0 0.0 0.9 0.00 9.14 0.00 67 1015.4
20260506100048 52 0 0.0 0.0 0.00 9.14 0.00 67 1015.2
20260506094547 52 0 0.0 0.0 0.00 1.37 0.00 64 1015.1
20260506093048 53 0 0.0 0.0 0.00 1.37 0.00 64 1015.1
20260506091542 55 0 0.0 0.0 0.00 1.37 0.00 57 1015.1
20260506090042 56 0 0.0 0.0 0.00 1.37 0.00 53 1015.0
20260506084544 56 0 0.0 0.0 0.00 2.94 0.00 53 1015.1
20260506083049 57 0 0.0 0.9 0.00 2.94 0.00 51 1015.1
20260506081552 58 39 0.0 1.7 0.00 2.94 0.00 48 1015.2
20260506073050 59 0 0.0 2.6 0.00 4.47 0.00 45 1015.4
20260506071551 59 0 0.0 3.5 0.00 4.47 0.00 45 1015.4
20260506070105 59 0 0.0 3.5 0.00 4.47 0.00 45 1015.3
20260506061545 60 0 0.0 0.9 0.00 5.75 4.47 46 1015.1
20260506044554 64 0 0.0 2.6 0.00 7.64 4.47 36 1014.4
20260506043045 64 0 0.0 5.2 0.00 7.64 4.47 37 1014.4
20260506041554 64 344 0.0 3.5 0.00 7.64 4.47 37 1014.1
20260506040043 64 226 0.0 3.5 0.00 7.64 4.47 38 1013.8
20260506034545 65 66 0.0 1.7 0.00 8.25 4.47 37 1013.6
20260506033048 65 0 0.0 2.6 0.00 8.25 4.47 37 1013.3
20260506031558 66 0 0.0 2.6 0.00 8.25 4.47 38 1013.1
20260506030105 66 10 0.0 2.6 0.00 8.25 4.47 37 1012.7
20260506024542 66 0 0.0 4.3 0.00 8.46 4.47 37 1012.4
20260506023046 67 274 0.9 5.2 0.00 8.46 4.47 37 1012.2
20260506021543 68 213 0.0 3.5 0.00 8.46 4.47 37 1012.0
20260506020044 68 241 0.9 3.5 0.00 8.46 4.47 35 1011.6
20260506014558 69 314 1.7 6.1 0.00 9.07 4.47 34 1011.6
20260506013049 70 165 1.7 7.0 0.00 9.07 4.47 32 1011.7
20260506011549 71 264 1.7 7.0 0.00 9.07 4.47 29 1011.5
20260506010042 72 262 2.6 6.1 0.00 9.07 4.47 27 1011.4
20260506004610 72 283 3.5 10.4 0.00 9.07 4.47 26 1011.3
20260506003042 72 52 1.7 8.7 0.00 9.07 4.47 30 1011.3
20260506001546 73 253 1.7 7.0 0.00 9.07 4.47 30 1011.2
20260506000051 74 253 2.6 9.6 0.00 9.07 4.47 30 1011.1
20260505234610 75 25 2.6 9.6 0.00 9.47 4.47 30 1010.9
20260505233041 75 317 1.7 9.6 0.00 9.47 4.47 30 1010.9
20260505231541 74 250 2.6 7.8 0.00 9.47 4.47 31 1010.9
20260505230040 75 50 2.6 8.7 0.00 9.47 4.47 29 1010.9
20260505224549 75 38 2.6 9.6 0.00 9.47 4.47 28 1011.1
20260505223101 77 58 4.3 9.6 0.00 9.47 4.47 25 1011.1
20260505221551 77 335 1.7 7.8 0.00 9.47 4.47 26 1011.2
20260505220043 77 271 4.3 11.3 0.00 9.47 4.47 26 1011.4
20260505214559 77 272 3.5 11.3 0.00 9.47 4.47 27 1011.4
20260505213046 75 311 3.5 11.3 0.00 9.47 4.47 30 1011.6
20260505211543 75 216 3.5 7.0 0.00 9.47 4.47 30 1011.8
20260505210043 75 264 1.7 7.0 0.00 9.47 4.47 32 1011.9
20260505204539 74 13 0.9 4.3 0.00 9.47 4.47 38 1012.1
20260505203039 75 239 0.9 6.1 0.00 9.47 4.47 39 1012.3
20260505201602 74 103 0.9 3.5 0.00 9.47 4.47 43 1012.5
20260505200100 74 356 0.9 7.8 0.00 9.47 4.47 44 1012.5
20260505194555 75 278 1.7 6.1 0.00 9.47 4.47 43 1012.5
20260505193048 74 248 1.7 7.0 0.00 9.47 4.47 45 1012.7
20260505191544 74 0 1.7 6.1 0.00 9.47 4.47 48 1012.9
20260505190048 73 218 1.7 6.1 0.00 9.47 4.47 50 1013.0
20260505184542 72 276 0.9 4.3 0.00 9.47 4.47 53 1013.3
20260505183047 71 247 0.9 3.5 0.00 9.47 4.47 52 1013.4
20260505181550 72 352 0.9 4.3 0.00 9.47 4.47 52 1013.6
20260505180050 71 0 0.9 5.2 0.00 9.47 4.47 54 1013.5
20260505174552 69 108 0.9 3.5 0.00 9.47 4.47 57 1013.7
20260505173051 68 0 0.0 2.6 0.00 9.47 4.47 62 1013.7
20260505171554 68 0 0.0 3.5 0.00 9.47 4.47 61 1013.7
20260505170049 66 0 0.0 2.6 0.00 9.47 4.47 62 1013.7
20260505164543 67 256 0.0 2.6 0.00 9.47 4.47 64 1013.6
20260505163042 65 0 0.0 1.7 0.00 9.47 4.47 68 1013.7
20260505161542 63 0 0.0 0.9 0.00 9.47 4.47 70 1013.4
20260505153047 61 0 0.0 0.9 0.00 9.47 4.47 79 1013.3
20260505151544 61 0 0.0 0.9 0.00 9.47 4.47 81 1013.4